Location: Palestine
(34.9737°N, 87.4542°W)
Time: 07:30:51
(UTC+00:00)

ISS - Visible Passes

Search period start: 21 May 2026 00:00
Search period end: 31 May 2026 00:00
Orbit: 414 x 424 km, 51.6° (Epoch: 20 May)

Date Brightness Start Highest point End Pass type
(mag) Time Alt. Az. Time Alt. Az. Time Alt. Az.
21 May -1.0 02:53:16 10° N 02:54:39 12° NNE 02:55:29 11° NE visible
22 May -1.2 03:40:57 10° NW 03:42:23 22° NNW 03:42:23 22° NNW visible
23 May -2.1 02:53:29 10° NNW 02:56:20 26° NE 02:56:23 26° NE visible
24 May -1.5 02:06:09 10° NNW 02:08:27 17° NNE 02:10:24 11° ENE visible
24 May -1.2 03:42:11 10° WNW 03:43:20 19° WNW 03:43:20 19° WNW visible
25 May -1.1 01:19:09 10° N 01:20:29 12° NNE 01:21:48 10° NE visible
25 May -3.6 02:54:23 10° NW 02:57:24 69° NNW 02:57:24 69° NNW visible
26 May -3.0 02:06:45 10° NW 02:09:56 42° NE 02:11:30 24° E visible
27 May -2.2 01:19:15 10° NNW 01:22:05 25° NE 01:24:55 10° E visible
27 May -2.2 02:55:57 10° WNW 02:58:36 27° WSW 02:58:36 27° WSW visible
28 May -3.3 02:07:53 10° WNW 02:11:09 52° SW 02:12:48 25° SSE visible
30 May -1.3 02:10:04 10° W 02:12:04 15° SW 02:14:04 10° SSW visible
